Weather History for Saranac Lake, NY

Change the Weather History Date:

Friday, January 20, 2012

  Actual Average Record
Temperature  
Mean Temperature 6 °F 13 °F  
Max Temperature 20 °F 25 °F 52 °F (1986)
Min Temperature -9 °F 1 °F -20 °F (1961)
Degree Days  
Heating Degree Days 59 52  
Month to date heating degree days 1002 1031  
Since 1 July heating degree days 4044 4730  
Moisture  
Dew Point 2 °F    
Average Humidity 64    
Maximum Humidity 83    
Minimum Humidity 45    
Precipitation  
Precipitation T in 0.06 in 0.85 in (1986)
Month to date precipitation 1.17 1.34  
Year to date precipitation 1.17 1.34  
Sea Level Pressure  
Sea Level Pressure 30.01 in    
Wind  
Wind Speed 6 mph (WSW)    
Max Wind Speed 18 mph    
Max Gust Speed 30 mph    
Visibility 7 miles    
Events Snow    
T = Trace of Precipitation, MM = Missing Value Source: NWS Daily Summary

Daily Weather History Graph

Daily Weather History Graph

Search for Another Location

Airport:

Trip Planner

Search our weather history database for the weather conditions in past years. The results will help you decide how hot, cold, wet, or windy it might be!

Date:

Astronomy

Jan. 20, 2012 Rise Set
Actual Time 7:26 AM EST 4:49 PM EST
Civil Twilight 6:54 AM EST 5:21 PM EST
Nautical Twilight 6:19 AM EST 5:56 PM EST
Astronomical Twilight 5:44 AM EST 6:31 PM EST
Moon 5:04 AM EST (1/20) 2:15 PM EST (1/20)
Length of Visible Light 10h 26m
Length of Day
9h 22m
Waning Crescent, 8% of the Moon is Illuminated
Jan 20
Waning Crescent
Jan 23
New
Jan 30
First Quarter
Feb 7
Full
Feb 14
Last Quarter

Hourly Weather History & Observations

Time (EST) Temp. Windchill Dew Point Humidity Pressure Visibility Wind Dir Wind Speed Gust Speed Precip Events Conditions
12:00 AM 19.4 °F 5.5 °F 14.0 °F 80% 29.71 in 3.0 mi SW 15.0 mph - 0.00 in Snow Light Snow
12:39 AM 19.4 °F 9.5 °F 15.8 °F 86% 29.72 in 8.0 mi SW 8.1 mph - 0.00 in   Overcast
12:51 AM 19.9 °F 8.6 °F 15.1 °F 81% 29.80 in 2.0 mi SW 10.4 mph - 0.00 in Snow Light Snow
1:16 AM 19.4 °F 9.5 °F 15.8 °F 86% 29.73 in 0.8 mi West 8.1 mph - 0.00 in Snow Light Snow
1:26 AM 19.4 °F 12.8 °F 15.8 °F 86% 29.74 in 1.0 mi Variable 4.6 mph - 0.00 in Snow Light Snow
1:33 AM 19.4 °F 8.6 °F 15.8 °F 86% 29.74 in 1.2 mi WSW 9.2 mph - 0.00 in Snow Light Snow
1:47 AM 19.4 °F 9.5 °F 14.0 °F 80% 29.75 in 2.5 mi WSW 8.1 mph - 0.00 in Snow Light Snow
1:51 AM 19.0 °F 8.2 °F 14.0 °F 81% 29.83 in 6.0 mi WSW 9.2 mph - 0.00 in   Haze
2:27 AM 17.6 °F 9.3 °F 12.2 °F 79% 29.79 in 2.0 mi Variable 5.8 mph 18.4 mph 0.00 in Snow Light Snow
2:33 AM 17.6 °F 1.7 °F 12.2 °F 79% 29.79 in 1.8 mi West 18.4 mph 29.9 mph 0.00 in Snow Light Snow
2:37 AM 17.6 °F 3.7 °F 10.4 °F 73% 29.80 in 3.0 mi WSW 13.8 mph 29.9 mph 0.00 in Snow Light Snow
2:51 AM 16.0 °F 2.9 °F 9.0 °F 74% 29.89 in 10.0 mi WSW 11.5 mph 20.7 mph 0.00 in   Overcast
3:51 AM 14.0 °F -0.8 °F 5.0 °F 67% 29.93 in 9.0 mi WSW 13.8 mph 24.2 mph 0.00 in   Overcast
4:51 AM 10.9 °F -0.8 °F 3.0 °F 70% 29.95 in 10.0 mi WSW 8.1 mph - N/A   Clear
5:08 AM 10.4 °F -4.1 °F 3.2 °F 73% 29.86 in 10.0 mi WSW 11.5 mph 18.4 mph N/A   Mostly Cloudy
5:51 AM 10.0 °F -2.9 °F 3.0 °F 73% 29.98 in 10.0 mi West 9.2 mph 19.6 mph N/A   Overcast
6:51 AM 10.0 °F -2.9 °F 3.0 °F 73% 30.02 in 7.0 mi West 9.2 mph - 0.00 in   Overcast
7:02 AM 10.4 °F -2.4 °F 1.4 °F 67% 29.93 in 6.0 mi WSW 9.2 mph 19.6 mph N/A   Haze
7:42 AM 8.6 °F -2.6 °F 1.4 °F 73% 29.95 in 9.0 mi West 6.9 mph - N/A   Overcast
7:49 AM 8.6 °F -3.7 °F 1.4 °F 73% 29.96 in 9.0 mi WSW 8.1 mph 17.3 mph N/A   Overcast
7:51 AM 9.0 °F -2.2 °F 1.0 °F 70% 30.06 in 9.0 mi Variable 6.9 mph 17.3 mph N/A   Overcast
8:51 AM 9.0 °F -2.2 °F 1.9 °F 73% 30.08 in 4.0 mi West 6.9 mph - N/A   Haze
8:58 AM 8.6 °F -1.3 °F 1.4 °F 73% 29.99 in 1.8 mi WSW 5.8 mph - 0.00 in Snow Light Snow
9:12 AM 8.6 °F -4.7 °F 3.2 °F 79% 30.00 in 3.0 mi WSW 9.2 mph - 0.00 in Snow Light Snow
9:51 AM 9.0 °F -4.2 °F 1.0 °F 70% 30.12 in 9.0 mi WSW 9.2 mph 20.7 mph 0.00 in   Overcast
10:51 AM 9.0 °F -5.1 °F 1.0 °F 70% 30.15 in 3.0 mi WSW 10.4 mph 18.4 mph 0.00 in   Haze
11:51 AM 9.0 °F -5.1 °F -0.0 °F 67% 30.15 in 10.0 mi WSW 10.4 mph - N/A   Mostly Cloudy
12:09 PM 10.4 °F -0.4 °F -0.4 °F 62% 30.06 in 10.0 mi WSW 6.9 mph 16.1 mph N/A   Scattered Clouds
12:51 PM 10.0 °F -1.9 °F -2.0 °F 58% 30.17 in 10.0 mi West 8.1 mph - N/A   Clear
1:51 PM 10.9 °F -2.6 °F -4.0 °F 51% 30.17 in 10.0 mi West 10.4 mph 18.4 mph N/A   Clear
2:51 PM 10.0 °F -3.7 °F -8.0 °F 44% 30.20 in 10.0 mi West 10.4 mph 16.1 mph N/A   Clear
3:51 PM 9.0 °F 2.4 °F -9.9 °F 42% 30.22 in 10.0 mi Variable 3.5 mph - N/A   Clear
4:51 PM 6.1 °F - -9.9 °F 48% 30.24 in 10.0 mi Calm Calm - N/A   Clear
5:51 PM 3.2 °F - -9.4 °F 56% 30.14 in 10.0 mi Calm Calm - N/A   Clear
6:51 PM -2.0 °F - -9.0 °F 72% 30.28 in 10.0 mi Calm Calm - N/A   Clear
7:51 PM -4.0 °F - -9.0 °F 79% 30.29 in 10.0 mi Calm Calm - N/A   Clear
8:51 PM -7.6 °F - -11.2 °F 84% 30.17 in 10.0 mi Calm Calm - N/A   Clear
9:51 PM -7.1 °F - -11.9 °F 79% 30.31 in 10.0 mi Calm Calm - N/A   Clear
10:51 PM -6.0 °F - -11.0 °F 79% 30.29 in 10.0 mi Calm Calm - N/A   Partly Cloudy
11:51 PM -2.9 °F - -7.1 °F 82% 30.27 in 10.0 mi Calm Calm - N/A   Overcast